Starlink 30120

operational
NORAD ID: 56824 Int'l Des: 2023-079 Owner: SPXS Country: US Constellation: starlink
LEOCIRCULAR

About Starlink 30120

Description loading...

Live Position

Loading 3D Globe...

Upcoming Passes

Altitude History

Altitude vs Time

uPlot chart will show altitude changes over time

Two-Line Element Set

1 56824U 23079B 25259.65333257 .00000969 00000-0 86763-4 0 9991
2 56824 43.0041 333.1408 0001222 271.7166 88.3536 15.02547168127022
Epoch: Sep 16, 2025 • Age: 36 hours

Current Status

Altitude 566.5 km
Velocity 7.58 km/s
Sub-Earth Point -29.81°S, 128.55°E
Launch Date Jun 4, 2023
Age 2.2 years
Type internet

Technical Details

Classification Payload
Mass 730.00 kg
Dry Mass 700.00 kg
Total Mass 730.00 kg
Length 0.30 m
Diameter 4.10 m
Span 29.00 m
Shape Box + pan
Manufacturer SPXS
Bus Type Starlink V2M
Phase Status In Orbit
Owner/State SPXS/US

Large Constellations

Loading constellations...